Location: Ao Por, Phuket, Thailand
(8.0591°N, 98.4362°E)
Time: 17:00:51
(UTC+07:00)

X-37B - Visible Passes

Search period start: 28 September 2021 00:00
Search period end: 08 October 2021 00:00
Orbit: 381 x 393 km, 45.0° (Epoch: 29 August)

Date Brightness Start Highest point End Pass type
(mag) Time Alt. Az. Time Alt. Az. Time Alt. Az.
05 Oct 2.9 19:18:08 10° S 19:18:57 13° SSE 19:18:57 13° SSE visible
06 Oct 3.0 19:55:12 10° SW 19:56:30 22° WSW 19:56:30 22° WSW visible
07 Oct 2.9 05:46:47 10° N 05:49:23 23° NE 05:52:00 10° ESE visible
07 Oct 0.9 18:56:55 10° SSW 18:59:58 45° SE 19:01:43 21° ENE visible
